FW5763 Weather Reports


Display with metric or nautical units.
time (UTC)temp
F
wind
direction
speed
MPH
gust
MPH
rain 1hr
in
rain 24hr
in
rain mn
in
humidity
%
barometer
mb
20260510072637 53 255 1.0 1.0 0.00 0.00 0.00 90 1015.7
20260510071617 53 0.0 0.0 0.00 0.00 0.00 90 1015.6
20260510070636 54 255 1.0 1.0 0.00 0.00 0.00 90 1015.8
20260510065617 54 255 1.0 2.0 0.00 0.00 0.00 90 1015.8
20260510064637 54 273 1.0 2.0 0.00 0.00 0.00 90 1015.7
20260510063617 54 266 0.0 1.0 0.00 0.00 0.00 90 1015.8
20260510062616 54 276 1.0 2.0 0.00 0.00 0.00 90 1015.7
20260510061657 54 274 1.0 3.0 0.00 0.00 0.00 89 1015.7
20260510060617 55 264 1.0 3.0 0.00 0.00 0.00 89 1015.7
20260510055637 55 278 2.0 3.0 0.00 0.00 0.00 89 1015.7
20260510054616 55 271 1.0 2.0 0.00 0.00 0.00 88 1015.7
20260510053617 55 271 1.0 2.0 0.00 0.00 0.00 88 1015.7
20260510052617 56 271 1.0 2.0 0.00 0.00 0.00 87 1015.8
20260510051617 56 271 0.0 2.0 0.00 0.00 0.00 88 1015.6
20260510050617 56 0.0 0.0 0.00 0.00 0.00 87 1015.6
20260510045617 56 271 0.0 1.0 0.00 0.00 0.00 87 1015.5
20260510044616 57 271 1.0 2.0 0.00 0.00 0.00 86 1015.4
20260510043617 57 248 2.0 2.0 0.00 0.00 0.00 86 1015.5
20260510042616 57 248 1.0 2.0 0.00 0.00 0.00 85 1015.4
20260510041616 58 248 0.0 2.0 0.00 0.00 0.00 85 1015.2
20260510040616 58 248 0.0 1.0 0.00 0.00 0.00 85 1015.1
20260510035616 58 248 1.0 2.0 0.00 0.00 0.00 84 1015.0
20260510034616 58 178 1.0 1.0 0.00 0.00 0.00 84 1015.0
20260510033616 59 178 0.0 1.0 0.00 0.00 0.00 83 1014.9
20260510032616 59 132 0.0 2.0 0.00 0.00 0.00 83 1014.7
20260510031615 59 140 0.0 1.0 0.00 0.00 0.00 82 1014.8
20260510030637 60 102 1.0 1.0 0.00 0.00 0.00 82 1014.6
20260510025616 60 98 0.0 3.0 0.00 0.00 0.00 81 1014.5
20260510024616 60 143 1.0 2.0 0.00 0.00 0.00 80 1014.6
20260510023616 61 124 1.0 2.0 0.00 0.00 0.00 79 1014.5
20260510022617 61 99 2.0 3.0 0.00 0.00 0.00 78 1014.5
20260510021636 62 114 2.0 4.0 0.00 0.00 0.00 76 1014.4
20260510020617 63 152 3.0 7.0 0.00 0.00 0.00 75 1014.4
20260510015617 63 152 3.0 6.0 0.00 0.00 0.00 73 1014.5
20260510014636 64 94 3.0 6.0 0.00 0.00 0.00 73 1014.4
20260510013616 65 154 4.0 8.0 0.00 0.00 0.00 72 1014.4
20260510012617 65 156 2.0 4.0 0.00 0.00 0.00 72 1014.4
20260510011617 66 101 6.0 7.0 0.00 0.00 0.00 70 1014.3
20260510010616 66 106 2.0 4.0 0.00 0.00 0.00 69 1014.2
20260510005616 67 86 3.0 6.0 0.00 0.00 0.00 68 1014.2
20260510004616 68 178 2.0 6.0 0.00 0.00 0.00 67 1014.3
20260510003637 68 155 4.0 5.0 0.00 0.00 0.00 66 1014.2
20260510002616 68 161 5.0 6.0 0.00 0.00 0.00 64 1014.2
20260510001616 69 113 2.0 4.0 0.00 0.00 0.00 64 1014.2
20260510000636 69 94 6.0 9.0 0.00 0.00 0.00 63 1014.1
20260509235616 70 98 3.0 5.0 0.00 0.00 0.00 63 1014.1
20260509234617 69 104 3.0 7.0 0.00 0.00 0.00 63 1014.1
20260509233616 69 99 6.0 9.0 0.00 0.00 0.00 62 1014.2
20260509232656 69 157 4.0 7.0 0.00 0.00 0.00 62 1014.3
20260509231616 69 161 5.0 8.0 0.00 0.00 0.00 62 1014.4
20260509230636 69 142 4.0 7.0 0.00 0.00 0.00 63 1014.3
20260509225616 70 155 5.0 7.0 0.00 0.00 0.00 63 1014.4
20260509224616 69 203 1.0 5.0 0.00 0.00 0.00 65 1014.5
20260509223616 68 124 4.0 7.0 0.00 0.00 0.00 66 1014.5
20260509222616 68 131 3.0 7.0 0.00 0.00 0.00 63 1014.7
20260509221616 68 165 4.0 7.0 0.00 0.00 0.00 65 1014.8
20260509220616 68 155 4.0 7.0 0.00 0.00 0.00 65 1014.8
20260509215616 68 139 4.0 8.0 0.00 0.00 0.00 65 1014.8
20260509214616 69 213 4.0 7.0 0.00 0.00 0.00 65 1014.9
20260509213616 68 189 4.0 5.0 0.00 0.00 0.00 66 1015.0
20260509212616 68 164 3.0 6.0 0.00 0.00 0.00 66 1015.1
20260509211616 67 194 3.0 5.0 0.00 0.00 0.00 67 1015.2
20260509210616 66 204 3.0 5.0 0.00 0.00 0.00 71 1015.3
20260509205616 66 150 4.0 6.0 0.00 0.00 0.00 69 1015.4
20260509204636 64 139 2.0 4.0 0.00 0.00 0.00 73 1015.4
20260509203616 64 97 4.0 6.0 0.00 0.00 0.00 73 1015.5
20260509202616 64 160 5.0 6.0 0.00 0.00 0.00 75 1015.7
20260509201616 63 126 3.0 7.0 0.00 0.00 0.00 75 1015.8
20260509200616 63 142 3.0 7.0 0.00 0.00 0.00 75 1016.0
20260509195616 63 142 4.0 6.0 0.00 0.00 0.00 75 1016.1
20260509194616 62 142 4.0 6.0 0.00 0.00 0.00 78 1016.2
20260509193616 61 267 2.0 4.0 0.00 0.00 0.00 79 1016.3
20260509192616 60 181 4.0 7.0 0.00 0.00 0.00 80 1016.5
20260509191636 60 160 3.0 7.0 0.00 0.00 0.00 80 1016.5
20260509190616 60 182 3.0 7.0 0.00 0.00 0.00 81 1016.5
20260509185616 59 208 4.0 6.0 0.00 0.00 0.00 82 1016.7
20260509184616 60 196 6.0 9.0 0.00 0.00 0.00 80 1016.8
20260509183616 59 170 3.0 6.0 0.00 0.00 0.00 82 1016.9
20260509182616 58 162 3.0 6.0 0.00 0.00 0.00 84 1016.9
20260509181616 58 208 4.0 7.0 0.00 0.00 0.00 83 1017.0
20260509180616 58 193 2.0 5.0 0.00 0.00 0.00 85 1016.9
20260509175616 57 176 3.0 6.0 0.00 0.00 0.00 86 1017.0
20260509174616 56 133 2.0 6.0 0.00 0.00 0.00 88 1016.9
20260509173616 56 216 3.0 5.0 0.00 0.00 0.00 88 1016.9
20260509172616 55 220 2.0 4.0 0.00 0.00 0.00 91 1016.8
20260509171616 54 97 1.0 2.0 0.00 0.00 0.00 92 1016.9
20260509170616 54 291 1.0 3.0 0.00 0.00 0.00 92 1016.9
20260509165616 54 188 1.0 3.0 0.00 0.00 0.00 92 1016.8
20260509164615 53 116 1.0 2.0 0.00 0.00 0.00 92 1016.9
20260509163616 53 84 2.0 4.0 0.00 0.00 0.00 92 1017.1
20260509162616 53 94 0.0 1.0 0.00 0.00 0.00 93 1017.1
20260509161615 52 180 1.0 2.0 0.00 0.00 0.00 93 1017.2
20260509160616 52 154 1.0 4.0 0.00 0.00 0.00 93 1017.1
20260509155615 52 259 1.0 2.0 0.00 0.00 0.00 93 1017.1
20260509154615 52 288 1.0 2.0 0.00 0.00 0.00 93 1017.3
20260509153616 52 306 0.0 1.0 0.00 0.00 0.00 93 1017.2
20260509152615 51 218 2.0 2.0 0.00 0.00 0.00 93 1017.0
20260509151615 51 246 0.0 2.0 0.00 0.00 0.00 93 1017.0
20260509150636 51 283 1.0 3.0 0.00 0.00 0.00 93 1017.1
20260509145616 51 284 2.0 3.0 0.00 0.00 0.00 93 1017.0
20260509144615 50 282 3.0 4.0 0.00 0.00 0.00 93 1017.0
20260509143635 50 279 2.0 3.0 0.00 0.00 0.00 93 1016.9
20260509142615 50 281 1.0 3.0 0.00 0.00 0.00 93 1016.8
20260509141616 50 268 1.0 3.0 0.00 0.00 0.00 93 1016.8
20260509140616 50 237 1.0 1.0 0.00 0.00 0.00 92 1016.6
20260509135615 50 291 1.0 2.0 0.00 0.00 0.00 93 1016.6
20260509134615 50 269 1.0 2.0 0.00 0.00 0.00 92 1016.6
20260509133616 50 284 1.0 2.0 0.00 0.00 0.00 92 1016.5
20260509132615 50 278 1.0 3.0 0.00 0.00 0.00 92 1016.6
20260509131615 50 267 2.0 2.0 0.00 0.00 0.00 92 1016.4
20260509130615 50 290 2.0 3.0 0.00 0.00 0.00 92 1016.4
20260509125635 51 264 2.0 3.0 0.00 0.00 0.00 92 1016.3
20260509124635 51 246 1.0 3.0 0.00 0.00 0.00 92 1016.3
20260509123616 51 290 2.0 3.0 0.00 0.00 0.00 92 1016.3
20260509122616 51 288 2.0 2.0 0.00 0.00 0.00 92 1016.3
20260509121615 51 279 1.0 2.0 0.00 0.00 0.00 92 1016.3
20260509120636 51 277 1.0 2.0 0.00 0.00 0.00 92 1016.3
20260509115615 51 279 1.0 3.0 0.00 0.00 0.00 92 1016.3
20260509114615 52 302 2.0 3.0 0.00 0.00 0.00 92 1016.4
20260509113635 52 308 1.0 3.0 0.00 0.00 0.00 92 1016.4
20260509112635 52 287 2.0 2.0 0.00 0.00 0.00 92 1016.4
20260509111616 51 312 1.0 2.0 0.00 0.00 0.00 92 1016.5
20260509110636 51 260 1.0 3.0 0.00 0.00 0.00 92 1016.5
20260509105615 52 274 2.0 3.0 0.00 0.00 0.00 92 1016.6
20260509104615 52 276 2.0 3.0 0.00 0.00 0.00 92 1016.5
20260509103615 52 272 1.0 3.0 0.00 0.00 0.00 91 1016.6
20260509102615 52 300 1.0 3.0 0.00 0.00 0.00 91 1016.6
20260509101615 53 285 0.0 2.0 0.00 0.00 0.00 91 1016.5
20260509100616 53 265 1.0 2.0 0.00 0.00 0.00 91 1016.5
20260509095615 53 321 1.0 2.0 0.00 0.00 0.00 91 1016.8
20260509094615 53 317 0.0 1.0 0.00 0.00 0.00 91 1016.7
20260509093616 53 313 1.0 2.0 0.00 0.00 0.00 91 1016.8
20260509092615 53 300 0.0 1.0 0.00 0.00 0.00 91 1016.9
20260509091618 53 318 1.0 2.0 0.00 0.00 0.00 91 1016.9
20260509090618 53 309 1.0 2.0 0.00 0.00 0.00 91 1017.0
20260509085618 52 308 2.0 3.0 0.00 0.00 0.00 91 1017.0
20260509084637 52 277 2.0 2.0 0.00 0.00 0.00 92 1017.2
20260509083618 52 277 1.0 1.0 0.00 0.00 0.00 92 1017.1
20260509082617 51 277 0.0 1.0 0.00 0.00 0.00 92 1017.2
20260509081616 51 277 0.0 1.0 0.00 0.00 0.00 91 1017.2
20260509080617 51 277 1.0 2.0 0.00 0.00 0.00 91 1017.1
20260509075618 51 277 0.0 1.0 0.00 0.00 0.00 91 1017.2
20260509074617 51 0.0 0.0 0.00 0.00 0.00 91 1017.2
20260509073617 51 0.0 0.0 0.00 0.00 0.00 91 1017.1